81.5000; 103.9000;1; 256.202; 323.286;2007.09.21 18:00:00;   0.5; 980.1;   4.0; 170.0;    .000;    .000;   0.000; 90;
81.5000; 103.9000;2; 256.202; 323.286;2007.09.22 00:00:00;   0.0; 980.4;   2.0; 150.0;    .000;    .250;   0.000; 90;
81.5000; 103.9000;2; 256.202; 323.286;2007.09.22 06:00:00;  -0.1; 984.7;   3.0; 310.0;    .000;    .500;   0.000; 90;
81.5000; 103.9000;2; 256.202; 323.286;2007.09.22 12:00:00;  -1.1; 989.4;   4.0; 300.0;    .000;    .750;   0.000; 90;
81.5000; 103.9000;2; 256.202; 323.286;2007.09.22 18:00:00;  -1.0; 992.7;   4.0; 300.0;    .000;   1.000;   0.000; 90;
81.3000; 103.5000;2; 256.086; 325.547;2007.09.23 00:00:00;  -1.4; 996.1;   2.0; 110.0;  23.212;   1.250;   3.869;197;
81.3000; 103.4000;2; 255.926; 325.585;2007.09.23 06:00:00;  -2.2; 998.6;   2.0; 100.0;  24.894;   1.500;   0.280;270;
81.3000; 103.4000;2; 255.926; 325.585;2007.09.23 12:00:00;  -1.4; 999.3;   3.0; 100.0;  24.894;   1.750;   0.000; 90;
81.3000; 103.4000;2; 255.926; 325.585;2007.09.23 18:00:00;  -1.9; 998.4;   5.0; 110.0;  24.894;   2.000;   0.000; 90;
81.3000; 103.3000;2; 255.767; 325.623;2007.09.24 00:00:00;  -2.4; 998.4;   5.0;  70.0;  26.576;   2.250;   0.280;270;
81.3000; 103.3000;2; 255.767; 325.623;2007.09.24 06:00:00;  -2.6; 998.8;   5.0; 110.0;  26.576;   2.500;   0.000; 90;
81.5000; 103.4000;2; 255.424; 323.475;2007.09.24 12:00:00;  -2.5; 997.3;   6.0; 110.0;  48.876;   2.750;   3.717;  4;
81.5000; 103.4000;2; 255.424; 323.475;2007.09.24 18:00:00;  -2.7; 993.6;   8.0; 100.0;  48.876;   3.000;   0.000; 90;
81.5000; 103.4000;2; 255.424; 323.475;2007.09.25 00:00:00;  -2.3; 989.5;   7.0; 120.0;  48.876;   3.250;   0.000; 90;
81.5000; 103.4000;2; 255.424; 323.475;2007.09.25 06:00:00;  -1.6; 987.6;   5.0; 120.0;  48.876;   3.500;   0.000; 90;
81.6000; 103.1000;2; 254.710; 322.529;2007.09.25 12:00:00;  -1.4; 987.6;   3.0; 120.0;  61.028;   3.750;   2.025;336;
81.6000; 103.0000;2; 254.555; 322.565;2007.09.25 18:00:00;  -1.5; 988.2;   2.0; 150.0;  62.653;   4.000;   0.271;270;
81.6000; 103.0000;2; 254.555; 322.565;2007.09.26 00:00:00;  -2.8; 991.2;   7.0; 300.0;  62.653;   4.250;   0.000; 90;
81.6000; 103.0000;2; 254.555; 322.565;2007.09.26 06:00:00;  -3.8; 995.1;   9.0; 280.0;  62.653;   4.500;   0.000; 90;
81.6000; 103.0000;2; 254.555; 322.565;2007.09.26 12:00:00;  -3.1; 996.9;   7.0; 290.0;  62.653;   4.750;   0.000; 90;
81.6000; 103.5000;2; 255.326; 322.384;2007.09.26 18:00:00;  -5.1; 999.6;   6.0; 310.0;  70.774;   5.000;   1.354; 90;
81.6000; 103.6000;2; 255.480; 322.347;2007.09.27 00:00:00;  -4.5;1000.1;   7.0; 250.0;  72.399;   5.250;   0.271; 90;
81.6000; 103.7000;2; 255.634; 322.309;2007.09.27 06:00:00;  -3.7;1002.1;   8.0; 280.0;  74.023;   5.500;   0.271; 90;
81.5000; 103.7000;2; 255.891; 323.363;2007.09.27 12:00:00;  -5.3;1004.4;   6.0; 340.0;  85.142;   5.750;   1.853;180;
81.5000; 104.1000;2; 256.513; 323.209;2007.09.27 18:00:00;  -6.2;1005.7;   6.0; 360.0;  91.717;   6.000;   1.096; 90;
81.5000; 104.1000;2; 256.513; 323.209;2007.09.28 00:00:00;  -8.9;1007.1;   3.0; 290.0;  91.717;   6.250;   0.000; 90;
81.5000; 104.1000;2; 256.513; 323.209;2007.09.28 09:00:00;  -7.6;1008.7;   2.0; 250.0;  91.717;   6.625;   0.000; 90;
81.5000; 104.2000;2; 256.669; 323.169;2007.09.28 15:00:00; -13.0;1009.0;   3.0; 260.0;  93.360;   6.875;   0.274; 90;
81.5000; 104.2000;2; 256.669; 323.169;2007.09.28 21:00:00; -10.0;1008.0;   3.0; 140.0;  93.360;   7.125;   0.000; 90;
81.5000; 104.3000;2; 256.824; 323.130;2007.09.29 03:00:00;  -7.7;1007.9;   5.0; 150.0;  95.004;   7.375;   0.274; 90;
81.5000; 104.3000;2; 256.824; 323.130;2007.09.29 09:00:00;  -8.5;1009.4;   3.0; 130.0;  95.004;   7.625;   0.000; 90;
81.5000; 104.3000;2; 256.824; 323.130;2007.09.29 15:00:00;  -8.2;1011.2;   2.0; 100.0;  95.004;   7.875;   0.000; 90;
81.5000; 104.3000;2; 256.824; 323.130;2007.09.29 21:00:00;  -9.0;1013.2;   2.0;  40.0;  95.004;   8.125;   0.000; 90;
81.5000; 104.3000;2; 256.824; 323.130;2007.09.30 03:00:00; -11.8;1014.9;   3.0; 100.0;  95.004;   8.375;   0.000; 90;
81.5000; 104.3000;2; 256.824; 323.130;2007.09.30 09:00:00;  -8.8;1017.1;   2.0;  10.0;  95.004;   8.625;   0.000; 90;
81.5000; 104.3000;2; 256.824; 323.130;2007.09.30 15:00:00;  -9.0;1018.3;   2.0;  20.0;  95.004;   8.875;   0.000; 90;
81.5000; 104.3000;2; 256.824; 323.130;2007.09.30 21:00:00;  -9.6;1018.9;   2.0;  50.0;  95.004;   9.125;   0.000; 90;
81.5000; 104.3000;2; 256.824; 323.130;2007.10.01 03:00:00;  -9.2;1019.9;   2.0;  50.0;  95.004;   9.375;   0.000; 90;
81.5000; 104.3000;2; 256.824; 323.130;2007.10.01 09:00:00; -12.9;1021.2;   2.0;  50.0;  95.004;   9.625;   0.000; 90;
81.5000; 104.3000;2; 256.824; 323.130;2007.10.01 15:00:00; -11.5;1021.2;   1.0; 340.0;  95.004;   9.875;   0.000; 90;
81.5000; 104.3000;2; 256.824; 323.130;2007.10.01 21:00:00; -12.0;1019.2;   3.0; 210.0;  95.004;  10.125;   0.000; 90;
81.5000; 104.3000;2; 256.824; 323.130;2007.10.02 03:00:00; -16.7;1016.7;   5.0; 200.0;  95.004;  10.375;   0.000; 90;
81.5000; 104.4000;2; 256.979; 323.090;2007.10.02 09:00:00; -13.2;1011.5;   6.0; 160.0;  96.647;  10.625;   0.274; 90;
81.5000; 104.5000;2; 257.135; 323.050;2007.10.02 15:00:00;  -9.4;1003.3;  11.0; 180.0;  98.291;  10.875;   0.274; 90;
81.6000; 105.1000;2; 257.782; 321.758;2007.10.03 03:00:00;  -3.2; 986.8;  14.0; 180.0; 113.115;  11.375;   1.235; 41;
81.6000; 105.3000;2; 258.088; 321.675;2007.10.03 09:00:00;  -3.1; 979.8;  13.0; 170.0; 116.364;  11.625;   0.541; 90;
81.7000; 105.5000;2; 258.103; 320.546;2007.10.03 18:00:00;  -4.9; 969.7;  11.0; 130.0; 127.942;  12.000;   1.287; 16;
81.8000; 105.3000;2; 257.515; 319.583;2007.10.04 00:00:00;  -5.2; 966.8;  11.0;  90.0; 139.511;  12.250;   1.928;344;
81.8000; 105.1000;2; 257.217; 319.664;2007.10.04 06:00:00;  -4.1; 966.0;   9.0;  90.0; 142.683;  12.500;   0.529;270;
81.8000; 104.9000;2; 256.918; 319.744;2007.10.04 12:00:00;  -3.6; 971.2;  11.0; 110.0; 145.855;  12.750;   0.529;270;
81.8000; 104.7000;2; 256.619; 319.823;2007.10.04 18:00:00;  -3.2; 975.7;   8.0;  80.0; 149.027;  13.000;   0.529;270;
81.8000; 104.5000;2; 256.320; 319.901;2007.10.05 00:00:00;  -3.0; 978.3;  11.0;  70.0; 152.199;  13.250;   0.529;270;
81.8000; 104.1000;2; 255.721; 320.054;2007.10.05 06:00:00;  -2.8; 980.2;  12.0;  50.0; 158.543;  13.500;   1.057;270;
81.8000; 103.9000;2; 255.421; 320.129;2007.10.05 12:00:00;  -2.5; 983.2;  12.0;  20.0; 161.715;  13.750;   0.529;270;
81.8000; 103.5000;2; 254.820; 320.275;2007.10.05 18:00:00;  -2.7; 985.5;  10.0;  10.0; 168.059;  14.000;   1.057;270;
81.8000; 103.4000;2; 254.670; 320.311;2007.10.06 00:00:00;  -3.4; 985.8;  11.0; 360.0; 169.645;  14.250;   0.264;270;
81.7000; 103.1000;2; 254.464; 321.473;2007.10.06 06:00:00;  -3.0; 987.0;   9.0; 360.0; 181.751;  14.500;   2.018;203;
81.7000; 103.1000;2; 254.464; 321.473;2007.10.06 12:00:00;  -4.8; 990.7;   5.0;  30.0; 181.751;  14.750;   0.000; 90;
81.7000; 102.9000;2; 254.159; 321.544;2007.10.06 18:00:00;  -2.7; 992.4;   9.0;  30.0; 184.962;  15.000;   0.535;270;
81.7000; 102.8000;2; 254.006; 321.579;2007.10.07 00:00:00;  -3.0; 996.4;   6.0;  50.0; 186.567;  15.250;   0.268;270;
81.7000; 102.6000;2; 253.701; 321.647;2007.10.07 06:00:00;  -3.3; 999.7;   6.0;  10.0; 189.777;  15.500;   0.535;270;
81.7000; 102.6000;2; 253.701; 321.647;2007.10.07 12:00:00;  -3.3;1002.5;   7.0; 350.0; 189.777;  15.750;   0.000; 90;
81.7000; 102.4000;2; 253.396; 321.715;2007.10.07 18:00:00;  -3.7;1004.4;   8.0; 340.0; 192.987;  16.000;   0.535;270;
81.6000; 102.3000;2; 253.474; 322.808;2007.10.08 00:00:00;  -2.9;1006.0;   8.0; 350.0; 204.223;  16.250;   1.873;188;
81.6000; 102.2000;2; 253.319; 322.842;2007.10.08 06:00:00;  -3.0;1008.3;   6.0;  10.0; 205.848;  16.500;   0.271;270;
81.6000; 102.1000;2; 253.164; 322.875;2007.10.08 12:00:00;  -3.7;1010.6;   4.0;  10.0; 207.472;  16.750;   0.271;270;
81.6000; 102.0000;2; 253.009; 322.908;2007.10.08 18:00:00;  -4.2;1011.7;   5.0;  30.0; 209.096;  17.000;   0.271;270;
81.6000; 102.0000;2; 253.009; 322.908;2007.10.09 00:00:00;  -4.9;1012.5;   4.0; 360.0; 209.096;  17.250;   0.000; 90;
81.6000; 102.0000;2; 253.009; 322.908;2007.10.09 06:00:00;  -4.6;1013.2;   3.0; 360.0; 209.096;  17.500;   0.000; 90;
81.6000; 102.0000;2; 253.009; 322.908;2007.10.09 12:00:00;  -4.6;1014.1;   3.0; 340.0; 209.096;  17.750;   0.000; 90;
81.6000; 102.0000;2; 253.009; 322.908;2007.10.09 18:00:00;  -8.0;1013.9;   4.0; 300.0; 209.096;  18.000;   0.000; 90;
81.6000; 102.0000;2; 253.009; 322.908;2007.10.10 00:00:00;  -4.3;1013.3;   3.0; 360.0; 209.096;  18.250;   0.000; 90;
81.6000; 101.9000;2; 252.854; 322.941;2007.10.10 06:00:00;  -9.1;1013.6;   4.0;  10.0; 210.721;  18.500;   0.271;270;
81.5000; 101.9000;2; 253.078; 324.002;2007.10.10 12:00:00;  -8.4;1013.5;   5.0; 360.0; 221.840;  18.750;   1.853;180;
81.5000; 101.8000;2; 252.921; 324.035;2007.10.10 18:00:00;  -6.2;1013.4;   4.0;  70.0; 223.484;  19.000;   0.274;270;
81.5000; 101.8000;2; 252.921; 324.035;2007.10.11 00:00:00;  -5.0;1013.9;   5.0; 100.0; 223.484;  19.250;   0.000; 90;
81.6000; 101.7000;2; 252.544; 323.006;2007.10.11 06:00:00;  -5.3;1013.5;   7.0; 100.0; 234.722;  19.500;   1.873;352;
81.6000; 101.7000;2; 252.544; 323.006;2007.10.11 12:00:00;  -6.5;1013.3;   5.0; 100.0; 234.722;  19.750;   0.000; 90;
81.6000; 101.6000;2; 252.389; 323.038;2007.10.11 18:00:00;  -5.4;1012.6;   6.0;  90.0; 236.347;  20.000;   0.271;270;
81.6000; 101.6000;2; 252.389; 323.038;2007.10.12 00:00:00;  -7.7;1011.9;   3.0;  80.0; 236.347;  20.250;   0.000; 90;
81.6000; 101.6000;2; 252.389; 323.038;2007.10.12 06:00:00;  -7.5;1010.5;   1.0;  60.0; 236.347;  20.500;   0.000; 90;
81.6000; 101.5000;2; 252.234; 323.069;2007.10.12 12:00:00;  -7.7;1009.6;   1.0; 260.0; 237.971;  20.750;   0.271;270;
81.6000; 101.6000;2; 252.389; 323.038;2007.10.12 18:00:00;  -7.6;1008.4;   2.0; 160.0; 239.595;  21.000;   0.271; 90;
81.6000; 101.6000;2; 252.389; 323.038;2007.10.13 00:00:00;  -8.7;1006.9;   2.0; 100.0; 239.595;  21.250;   0.000; 90;
81.6000; 101.6000;2; 252.389; 323.038;2007.10.13 06:00:00; -14.5;1004.2;   3.0; 350.0; 239.595;  21.500;   0.000; 90;
81.6000; 101.5000;2; 252.234; 323.069;2007.10.13 12:00:00;  -7.9;1001.7;   4.0;  70.0; 241.220;  21.750;   0.271;270;
81.6000; 101.5000;2; 252.234; 323.069;2007.10.13 18:00:00; -17.3;1000.3;   2.0;  10.0; 241.220;  22.000;   0.000; 90;
81.6000; 101.5000;2; 252.234; 323.069;2007.10.14 00:00:00; -10.8; 999.1;   3.0; 270.0; 241.220;  22.250;   0.000; 90;
81.4000; 101.4000;2; 252.507; 325.227;2007.10.14 06:00:00; -12.5; 998.1;   6.0; 220.0; 263.519;  22.500;   3.717;184;
81.6000; 101.7000;2; 252.544; 323.006;2007.10.14 12:00:00;  -8.5; 997.5;   7.0; 210.0; 286.298;  22.750;   3.796; 13;
81.6000; 101.8000;2; 252.699; 322.973;2007.10.14 18:00:00;  -6.8; 995.8;   5.0; 220.0; 287.922;  23.000;   0.271; 90;
81.6000; 101.9000;2; 252.854; 322.941;2007.10.15 00:00:00;  -8.7; 997.5;   7.0; 360.0; 289.546;  23.250;   0.271; 90;
81.6000; 102.0000;2; 253.009; 322.908;2007.10.15 06:00:00; -10.2; 998.9;   9.0; 260.0; 291.171;  23.500;   0.271; 90;
81.6000; 102.2000;2; 253.319; 322.842;2007.10.15 12:00:00;  -9.3;1001.6;  10.0; 270.0; 294.419;  23.750;   0.541; 90;
81.5000; 102.3000;2; 253.705; 323.867;2007.10.15 18:00:00; -12.7;1005.3;   6.0; 240.0; 305.658;  24.000;   1.873;172;
81.5000; 102.5000;2; 254.018; 323.799;2007.10.16 00:00:00; -11.3;1008.4;   4.0; 200.0; 308.945;  24.250;   0.548; 90;
81.5000; 102.6000;2; 254.174; 323.764;2007.10.16 06:00:00;  -8.7;1011.4;   2.0; 250.0; 310.589;  24.500;   0.274; 90;
81.5000; 102.7000;2; 254.331; 323.729;2007.10.16 12:00:00;  -9.9;1015.1;   2.0; 190.0; 312.232;  24.750;   0.274; 90;
81.5000; 102.7000;2; 254.331; 323.729;2007.10.16 18:00:00; -16.8;1017.2;   4.0; 170.0; 312.232;  25.000;   0.000; 90;
81.5000; 102.8000;2; 254.487; 323.693;2007.10.17 00:00:00; -19.7;1018.8;   4.0; 180.0; 313.876;  25.250;   0.274; 90;
81.5000; 102.8000;2; 254.487; 323.693;2007.10.17 06:00:00; -15.0;1019.1;   4.0; 150.0; 313.876;  25.500;   0.000; 90;
81.6000; 102.9000;2; 254.401; 322.601;2007.10.17 12:00:00; -12.7;1019.4;   7.0; 160.0; 325.115;  25.750;   1.873;  8;
81.6000; 103.0000;2; 254.555; 322.565;2007.10.17 18:00:00; -20.0;1018.9;   4.0; 130.0; 326.739;  26.000;   0.271; 90;
81.6000; 103.0000;2; 254.555; 322.565;2007.10.18 00:00:00; -10.2;1018.3;   5.0; 140.0; 326.739;  26.250;   0.000; 90;
81.6000; 103.0000;2; 254.555; 322.565;2007.10.18 06:00:00; -13.7;1017.9;   4.0; 130.0; 326.739;  26.500;   0.000; 90;
81.6000; 103.0000;2; 254.555; 322.565;2007.10.18 12:00:00;  -8.4;1017.6;   3.0; 120.0; 326.739;  26.750;   0.000; 90;
81.6000; 103.0000;2; 254.555; 322.565;2007.10.18 18:00:00;  -7.1;1017.5;   6.0; 150.0; 326.739;  27.000;   0.000; 90;
81.6000; 103.1000;2; 254.710; 322.529;2007.10.19 00:00:00;  -7.4;1017.7;   5.0; 140.0; 328.363;  27.250;   0.271; 90;
81.7000; 103.0000;2; 254.312; 321.509;2007.10.19 06:00:00; -10.5;1018.2;   5.0; 150.0; 339.599;  27.500;   1.873;352;
81.7000; 103.1000;2; 254.464; 321.473;2007.10.19 12:00:00;  -8.9;1019.1;   5.0; 190.0; 341.204;  27.750;   0.268; 90;
81.7000; 103.1000;2; 254.464; 321.473;2007.10.19 18:00:00; -15.9;1019.1;   4.0; 160.0; 341.204;  28.000;   0.000; 90;
81.7000; 103.2000;2; 254.616; 321.438;2007.10.20 00:00:00; -10.2;1019.5;   5.0; 170.0; 342.810;  28.250;   0.268; 90;
81.7000; 103.2000;2; 254.616; 321.438;2007.10.20 06:00:00; -15.4;1019.4;   4.0; 200.0; 342.810;  28.500;   0.000; 90;
81.7000; 103.3000;2; 254.769; 321.402;2007.10.20 12:00:00; -19.0;1020.2;   5.0; 180.0; 344.415;  28.750;   0.268; 90;
81.7000; 103.4000;2; 254.921; 321.366;2007.10.20 18:00:00; -18.9;1019.6;   5.0; 160.0; 346.020;  29.000;   0.268; 90;
81.7000; 103.5000;2; 255.073; 321.329;2007.10.21 00:00:00;  -9.8;1019.4;   7.0; 170.0; 347.625;  29.250;   0.268; 90;
81.7000; 103.6000;2; 255.225; 321.293;2007.10.21 06:00:00; -16.0;1018.3;   5.0; 160.0; 349.230;  29.500;   0.268; 90;
81.8000; 103.7000;2; 255.121; 320.203;2007.10.21 12:00:00; -18.5;1017.2;   5.0; 160.0; 360.464;  29.750;   1.872;  8;
81.8000; 103.7000;2; 255.121; 320.203;2007.10.21 18:00:00; -15.6;1015.1;   6.0; 160.0; 360.464;  30.000;   0.000; 90;
81.8000; 103.9000;2; 255.421; 320.129;2007.10.22 00:00:00; -11.8;1014.1;   8.0; 160.0; 363.636;  30.250;   0.529; 90;
81.8000; 104.0000;2; 255.571; 320.092;2007.10.22 06:00:00; -12.8;1013.3;   7.0; 160.0; 365.222;  30.500;   0.264; 90;
81.9000; 104.1000;2; 255.457; 319.003;2007.10.22 12:00:00; -12.1;1013.4;   9.0; 160.0; 376.453;  30.750;   1.872;  8;
81.9000; 104.2000;2; 255.605; 318.965;2007.10.22 18:00:00; -12.1;1013.0;   9.0; 160.0; 378.019;  31.000;   0.261; 90;
81.9000; 104.3000;2; 255.753; 318.928;2007.10.23 00:00:00; -11.2;1012.2;   9.0; 160.0; 379.586;  31.250;   0.261; 90;
82.0000; 104.3000;2; 255.485; 317.878;2007.10.23 06:00:00;  -7.8;1009.9;   7.0; 150.0; 390.706;  31.500;   1.853;  0;
82.0000; 104.4000;2; 255.631; 317.840;2007.10.23 12:00:00;  -6.2;1007.4;   8.0; 150.0; 392.253;  31.750;   0.258; 90;
82.0000; 104.6000;2; 255.923; 317.765;2007.10.23 18:00:00;  -6.1;1003.4;   8.0; 160.0; 395.348;  32.000;   0.516; 90;
82.0000; 104.7000;2; 256.069; 317.727;2007.10.24 00:00:00;  -7.1; 997.7;  11.0; 160.0; 396.896;  32.250;   0.258; 90;
82.1000; 104.8000;2; 255.938; 316.641;2007.10.24 06:00:00;  -7.7; 990.9;  12.0; 150.0; 408.121;  32.500;   1.871;  8;
82.2000; 105.0000;2; 255.946; 315.517;2007.10.24 12:00:00;  -6.7; 986.7;  10.0; 150.0; 419.648;  32.750;   1.921; 15;
82.2000; 105.0000;2; 255.946; 315.517;2007.10.24 18:00:00;  -9.0; 983.0;  12.0; 140.0; 419.648;  33.000;   0.000; 90;
82.2000; 105.1000;2; 256.088; 315.479;2007.10.25 00:00:00;  -9.2; 981.5;  12.0; 140.0; 421.157;  33.250;   0.252; 90;
82.3000; 105.1000;2; 255.806; 314.433;2007.10.25 06:00:00;  -9.1; 980.7;   9.0; 110.0; 432.277;  33.500;   1.853;  0;
82.3000; 105.1000;2; 255.806; 314.433;2007.10.25 12:00:00;  -7.5; 980.8;   7.0; 130.0; 432.277;  33.750;   0.000; 90;
82.4000; 104.9000;2; 255.247; 313.462;2007.10.25 18:00:00;  -6.4; 981.4;   8.0; 130.0; 443.783;  34.000;   1.918;345;
82.4000; 104.8000;2; 255.108; 313.498;2007.10.26 00:00:00;  -9.4; 983.6;   9.0; 110.0; 445.254;  34.250;   0.245;270;
82.4000; 104.6000;2; 254.831; 313.571;2007.10.26 06:00:00; -12.0; 985.3;   9.0; 100.0; 448.195;  34.500;   0.490;270;
82.4000; 104.3000;2; 254.415; 313.678;2007.10.26 12:00:00; -11.0; 987.7;  11.0;  90.0; 452.607;  34.750;   0.735;270;
82.5000; 104.1000;2; 253.873; 312.698;2007.10.26 18:00:00; -10.4; 991.2;   9.0;  80.0; 464.104;  35.000;   1.916;345;
82.4000; 103.9000;2; 253.859; 313.818;2007.10.27 00:00:00; -11.3; 996.7;   8.0; 100.0; 475.601;  35.250;   1.916;195;
82.5000; 103.7000;2; 253.324; 312.834;2007.10.27 06:00:00; -11.2;1001.3;   4.0;  90.0; 487.098;  35.500;   1.916;345;
82.5000; 103.6000;2; 253.187; 312.867;2007.10.27 12:00:00; -18.4;1004.8;   4.0;  60.0; 488.549;  35.750;   0.242;270;
82.5000; 103.4000;2; 252.912; 312.933;2007.10.27 18:00:00; -13.0;1005.3;   4.0;  20.0; 491.452;  36.000;   0.484;270;
82.5000; 103.4000;2; 252.912; 312.933;2007.10.28 00:00:00; -18.1;1004.9;   3.0;  30.0; 491.452;  36.250;   0.000; 90;
82.5000; 103.2000;2; 252.637; 312.998;2007.10.28 06:00:00; -14.4;1003.2;   5.0;  20.0; 494.355;  36.500;   0.484;270;
82.5000; 103.2000;2; 252.637; 312.998;2007.10.28 12:00:00; -16.5;1003.2;   4.0;  20.0; 494.355;  36.750;   0.000; 90;
82.5000; 103.1000;2; 252.499; 313.030;2007.10.28 18:00:00; -13.9;1002.1;   6.0;  20.0; 495.806;  37.000;   0.242;270;
82.5000; 103.0000;2; 252.362; 313.062;2007.10.29 00:00:00; -15.0;1001.7;   5.0; 350.0; 497.258;  37.250;   0.242;270;
82.5000; 102.9000;2; 252.224; 313.094;2007.10.29 06:00:00; -17.6;1001.4;   4.0; 350.0; 498.709;  37.500;   0.242;270;
82.5000; 102.9000;2; 252.224; 313.094;2007.10.29 12:00:00; -16.9;1002.1;   3.0; 320.0; 498.709;  37.750;   0.000; 90;
82.5000; 102.8000;2; 252.086; 313.126;2007.10.29 18:00:00; -15.7;1001.6;   3.0; 350.0; 500.160;  38.000;   0.242;270;
82.5000; 102.7000;2; 251.948; 313.157;2007.10.30 00:00:00; -13.3;1001.2;   6.0;  50.0; 501.612;  38.250;   0.242;270;
82.5000; 102.5000;2; 251.672; 313.218;2007.10.30 06:00:00; -14.0; 999.9;   6.0;  30.0; 504.515;  38.500;   0.484;270;
82.4000; 102.4000;2; 251.767; 314.307;2007.10.30 12:00:00; -13.6; 999.0;   4.0; 360.0; 515.729;  38.750;   1.869;187;
82.4000; 102.3000;2; 251.627; 314.337;2007.10.30 18:00:00; -14.2; 998.6;   3.0;  10.0; 517.200;  39.000;   0.245;270;
82.4000; 102.3000;2; 251.627; 314.337;2007.10.31 00:00:00; -20.9;1000.6;   5.0; 370.0; 517.200;  39.250;   0.000; 90;
82.4000; 102.1000;2; 251.347; 314.398;2007.10.31 06:00:00; -25.3;1003.9;   4.0;  60.0; 520.141;  39.500;   0.490;270;
82.4000; 102.1000;2; 251.347; 314.398;2007.10.31 12:00:00; -27.1;1008.2;   3.0;  50.0; 520.141;  39.750;   0.000; 90;
82.4000; 102.1000;2; 251.347; 314.398;2007.10.31 18:00:00; -25.5;1009.6;   4.0;  30.0; 520.141;  40.000;   0.000; 90;
82.4000; 102.1000;2; 251.347; 314.398;2007.11.01 00:00:00; -14.7;1010.1;   5.0;  20.0; 520.141;  40.250;   0.000; 90;
82.4000; 101.9000;2; 251.066; 314.457;2007.11.01 06:00:00; -20.3;1012.4;   5.0;  20.0; 523.083;  40.500;   0.490;270;
82.4000; 101.8000;2; 250.926; 314.487;2007.11.01 12:00:00; -19.3;1013.8;   5.0;  20.0; 524.553;  40.750;   0.245;270;
82.4000; 101.7000;2; 250.786; 314.516;2007.11.01 18:00:00; -18.3;1013.8;   4.0;  30.0; 526.024;  41.000;   0.245;270;
82.4000; 101.6000;2; 250.646; 314.545;2007.11.02 00:00:00; -19.5;1015.2;   4.0;  50.0; 527.494;  41.250;   0.245;270;
82.4000; 101.5000;2; 250.505; 314.574;2007.11.02 06:00:00; -23.0;1016.0;   4.0;  60.0; 528.965;  41.500;   0.245;270;
82.4000; 101.4000;2; 250.365; 314.602;2007.11.02 12:00:00; -23.8;1016.7;   4.0;  50.0; 530.436;  41.750;   0.245;270;
82.4000; 101.3000;2; 250.224; 314.630;2007.11.02 18:00:00; -22.9;1017.0;   5.0;  50.0; 531.906;  42.000;   0.245;270;
82.4000; 101.2000;2; 250.084; 314.658;2007.11.03 00:00:00; -24.8;1017.7;   5.0;  60.0; 533.377;  42.250;   0.245;270;
82.4000; 101.1000;2; 249.943; 314.686;2007.11.03 06:00:00; -22.1;1018.2;   5.0;  40.0; 534.847;  42.500;   0.245;270;
82.4000; 101.0000;2; 249.803; 314.713;2007.11.03 12:00:00; -19.7;1019.7;   6.0;  50.0; 536.318;  42.750;   0.245;270;
82.4000; 100.9000;2; 249.662; 314.741;2007.11.03 18:00:00; -23.0;1020.2;   5.0;  20.0; 537.789;  43.000;   0.245;270;
82.4000; 100.8000;2; 249.521; 314.768;2007.11.04 00:00:00; -21.2;1021.8;   6.0;  50.0; 539.259;  43.250;   0.245;270;
82.4000; 100.7000;2; 249.381; 314.794;2007.11.04 06:00:00; -25.6;1023.4;   4.0;  20.0; 540.730;  43.500;   0.245;270;
82.4000; 100.7000;2; 249.381; 314.794;2007.11.04 12:00:00; -26.3;1025.1;   5.0;  10.0; 540.730;  43.750;   0.000; 90;
82.3000; 100.6000;2; 249.439; 315.885;2007.11.04 18:00:00; -20.1;1024.9;   7.0;  20.0; 551.947;  44.000;   1.870;188;
82.3000; 100.6000;2; 249.439; 315.885;2007.11.05 00:00:00; -18.0;1026.2;   5.0;  50.0; 551.947;  44.250;   0.000; 90;
82.3000; 100.5000;2; 249.296; 315.912;2007.11.05 06:00:00; -19.6;1027.2;   4.0;  50.0; 553.437;  44.500;   0.248;270;
82.3000; 100.5000;2; 249.296; 315.912;2007.11.05 12:00:00; -17.4;1027.7;   5.0;  80.0; 553.437;  44.750;   0.000; 90;
82.3000; 100.5000;2; 249.296; 315.912;2007.11.05 18:00:00; -20.2;1027.3;   5.0;  90.0; 553.437;  45.000;   0.000; 90;
82.3000; 100.4000;2; 249.154; 315.938;2007.11.06 00:00:00; -19.7;1026.4;   4.0;  60.0; 554.927;  45.250;   0.248;270;
82.3000; 100.4000;2; 249.154; 315.938;2007.11.06 06:00:00; -23.0;1025.4;   4.0;  90.0; 554.927;  45.500;   0.000; 90;
82.3000; 100.3000;2; 249.011; 315.964;2007.11.06 12:00:00; -25.9;1025.2;   4.0; 100.0; 556.417;  45.750;   0.248;270;
82.3000; 100.3000;2; 249.011; 315.964;2007.11.06 18:00:00; -28.4;1025.2;   3.0;  50.0; 556.417;  46.000;   0.000; 90;
82.3000; 100.2000;2; 248.868; 315.990;2007.11.07 00:00:00; -28.0;1025.0;   5.0;  60.0; 557.907;  46.250;   0.248;270;
82.3000; 100.2000;2; 248.868; 315.990;2007.11.07 06:00:00; -29.6;1024.7;   4.0;  50.0; 557.907;  46.500;   0.000; 90;
82.3000; 100.1000;2; 248.725; 316.016;2007.11.07 12:00:00; -29.5;1024.4;   4.0;  30.0; 559.396;  46.750;   0.248;270;
82.3000; 100.0000;2; 248.582; 316.041;2007.11.07 18:00:00; -23.1;1022.8;   3.0;  50.0; 560.886;  47.000;   0.248;270;
82.3000;  99.9000;2; 248.439; 316.066;2007.11.08 00:00:00; -19.4;1019.5;   3.0; 360.0; 562.376;  47.250;   0.248;270;
82.3000;  99.8000;2; 248.296; 316.091;2007.11.08 06:00:00; -16.2;1016.5;   6.0; 360.0; 563.866;  47.500;   0.248;270;
82.3000;  99.7000;2; 248.153; 316.116;2007.11.08 12:00:00; -16.7;1013.5;   6.0;  10.0; 565.356;  47.750;   0.248;270;
82.3000;  99.6000;2; 248.010; 316.140;2007.11.08 18:00:00; -16.6;1011.0;   7.0;  20.0; 566.846;  48.000;   0.248;270;
82.3000;  99.5000;2; 247.867; 316.164;2007.11.09 00:00:00; -15.7;1008.7;   7.0;  10.0; 568.335;  48.250;   0.248;270;
82.3000;  99.5000;2; 247.867; 316.164;2007.11.09 06:00:00; -17.6;1007.4;   6.0; 350.0; 568.335;  48.500;   0.000; 90;
82.2000;  99.5000;2; 248.046; 317.233;2007.11.09 12:00:00; -20.7;1007.2;   5.0; 340.0; 579.456;  48.750;   1.853;180;
82.2000;  99.5000;2; 248.046; 317.233;2007.11.09 18:00:00; -22.9;1008.9;   3.0; 350.0; 579.456;  49.000;   0.000; 90;
82.2000;  99.5000;2; 248.046; 317.233;2007.11.10 00:00:00; -24.4;1010.1;   4.0; 320.0; 579.456;  49.250;   0.000; 90;
82.2000;  99.6000;2; 248.191; 317.208;2007.11.10 06:00:00; -19.3;1011.0;   6.0; 310.0; 580.965;  49.500;   0.252; 90;
82.2000;  99.5000;2; 248.046; 317.233;2007.11.10 12:00:00; -17.8;1014.3;   3.0;  30.0; 582.474;  49.750;   0.252;270;
82.2000;  99.5000;2; 248.046; 317.233;2007.11.10 18:00:00; -20.5;1018.0;   4.0;  80.0; 582.474;  50.000;   0.000; 90;
82.2000;  99.4000;2; 247.901; 317.257;2007.11.11 00:00:00; -23.6;1021.3;   4.0;  80.0; 583.983;  50.250;   0.252;270;
82.2000;  99.3000;2; 247.756; 317.281;2007.11.11 06:00:00; -22.9;1024.5;   4.0;  90.0; 585.492;  50.500;   0.252;270;